QPF
0.01 0.03 0.08 0.11 0.10 0.11 0.05 0.03 0.02 0.04 0.02 0.01 0.00 0.01 0.02 0.02 0.02 0.07 0.12 0.11 0.13 0.15 0.12 0.15 0.13 0.14 0.14 0.11 0.09 0.10 0.09 0.10 0.09 0.08 0.07 0.06 0.07 0.06 0.05 0.06 0.04 0.03 0.04 0.05 0.06 0.05 0.04 0.03 0.02
0.04 0.06 0.09 0.12 0.11 0.06 0.03 0.02 0.02 0.03 0.02 0.01 0.00 0.01 0.01 0.02 0.03 0.10 0.16 0.13 0.12 0.11 0.11 0.15 0.14 0.12 0.10 0.08 0.07 0.06 0.06 0.09 0.10 0.08 0.06 0.04 0.06 0.10 0.11 0.09 0.05 0.05 0.04 0.04 0.03 0.02 0.02 0.03 0.03
0.10 0.11 0.09 0.14 0.08 0.04 0.03 0.02 0.02 0.02 0.01 0.01 0.00 0.00 0.01 0.04 0.06 0.12 0.15 0.11 0.11 0.11 0.11 0.11 0.10 0.07 0.07 0.07 0.05 0.04 0.05 0.09 0.12 0.10 0.06 0.05 0.07 0.10 0.10 0.11 0.07 0.05 0.04 0.04 0.04 0.04 0.04 0.04 0.05
0.08 0.11 0.12 0.13 0.07 0.03 0.02 0.01 0.01 0.00 0.00 0.00 0.00 0.00 0.02 0.03 0.06 0.09 0.09 0.07 0.07 0.07 0.07 0.08 0.06 0.06 0.11 0.08 0.05 0.04 0.05 0.07 0.09 0.09 0.07 0.06 0.08 0.07 0.07 0.07 0.05 0.03 0.03 0.04 0.06 0.06 0.06 0.05 0.04
0.10 0.17 0.14 0.10 0.06 0.03 0.02 0.01 0.01 0.00 0.00 0.00 0.00 0.01 0.04 0.03 0.04 0.04 0.05 0.06 0.05 0.05 0.05 0.06 0.06 0.09 0.12 0.07 0.05 0.05 0.05 0.05 0.05 0.05 0.05 0.05 0.06 0.06 0.05 0.04 0.03 0.02 0.02 0.03 0.03 0.02 0.02 0.02 0.03
0.10 0.14 0.10 0.06 0.03 0.01 0.01 0.01 0.01 0.01 0.00 0.00 0.01 0.02 0.06 0.05 0.04 0.04 0.04 0.04 0.03 0.04 0.04 0.04 0.04 0.05 0.04 0.03 0.04 0.03 0.03 0.04 0.03 0.03 0.03 0.04 0.05 0.04 0.02 0.02 0.01 0.01 0.02 0.01 0.01 0.01 0.01 0.02 0.02
0.11 0.09 0.07 0.05 0.03 0.02 0.02 0.01 0.01 0.01 0.01 0.01 0.01 0.01 0.03 0.06 0.05 0.04 0.03 0.03 0.02 0.02 0.03 0.03 0.02 0.02 0.02 0.02 0.02 0.02 0.02 0.03 0.03 0.03 0.03 0.02 0.02 0.03 0.02 0.02 0.01 0.01 0.01 0.01 0.01 0.01 0.02 0.02 0.02
0.10 0.09 0.06 0.04 0.06 0.04 0.02 0.02 0.01 0.01 0.01 0.01 0.01 0.01 0.01 0.02 0.02 0.02 0.03 0.02 0.02 0.02 0.02 0.02 0.02 0.01 0.02 0.02 0.02 0.02 0.02 0.02 0.04 0.04 0.04 0.04 0.04 0.04 0.03 0.02 0.02 0.02 0.02 0.02 0.01 0.01 0.02 0.03 0.03
0.05 0.06 0.05 0.02 0.06 0.04 0.02 0.02 0.05 0.04 0.01 0.03 0.01 0.00 0.00 0.01 0.02 0.02 0.03 0.02 0.03 0.03 0.03 0.02 0.02 0.02 0.02 0.02 0.02 0.02 0.01 0.02 0.03 0.04 0.06 0.05 0.04 0.04 0.03 0.03 0.04 0.05 0.04 0.03 0.03 0.02 0.02 0.02 0.02
0.05 0.04 0.02 0.01 0.02 0.01 0.01 0.01 0.04 0.04 0.03 0.08 0.02 0.00 0.02 0.02 0.03 0.03 0.03 0.03 0.03 0.03 0.03 0.03 0.03 0.02 0.02 0.02 0.02 0.02 0.02 0.02 0.02 0.03 0.04 0.04 0.05 0.05 0.04 0.06 0.08 0.08 0.07 0.06 0.06 0.05 0.03 0.02 0.02
0.02 0.02 0.01 0.01 0.01 0.00 0.00 0.01 0.02 0.02 0.02 0.02 0.01 0.00 0.01 0.01 0.02 0.03 0.04 0.04 0.04 0.04 0.04 0.04 0.04 0.03 0.02 0.02 0.02 0.03 0.03 0.03 0.04 0.03 0.03 0.03 0.03 0.05 0.04 0.05 0.05 0.05 0.05 0.03 0.03 0.03 0.02 0.02 0.05
0.01 0.01 0.01 0.01 0.01 0.01 0.01 0.01 0.01 0.02 0.01 0.01 0.01 0.00 0.00 0.00 0.01 0.02 0.03 0.04 0.04 0.04 0.08 0.10 0.06 0.04 0.02 0.02 0.02 0.02 0.03 0.04 0.03 0.02 0.03 0.04 0.04 0.05 0.04 0.03 0.03 0.03 0.02 0.02 0.01 0.02 0.02 0.03 0.04
0.01 0.01 0.01 0.01 0.01 0.01 0.01 0.01 0.01 0.02 0.03 0.02 0.01 0.00 0.00 0.01 0.02 0.02 0.02 0.02 0.02 0.03 0.04 0.06 0.07 0.06 0.04 0.03 0.03 0.02 0.02 0.03 0.03 0.03 0.03 0.04 0.04 0.04 0.03 0.03 0.03 0.04 0.02 0.02 0.02 0.02 0.02 0.03 0.04
0.01 0.01 0.01 0.01 0.01 0.01 0.01 0.01 0.01 0.02 0.04 0.04 0.01 0.01 0.00 0.01 0.01 0.01 0.01 0.01 0.01 0.01 0.01 0.02 0.03 0.05 0.07 0.06 0.05 0.03 0.02 0.02 0.03 0.02 0.03 0.06 0.07 0.04 0.03 0.03 0.03 0.03 0.02 0.02 0.03 0.05 0.03 0.03 0.04
0.01 0.01 0.01 0.01 0.01 0.02 0.02 0.02 0.02 0.02 0.04 0.04 0.02 0.01 0.00 0.00 0.00 0.00 0.00 0.00 0.00 0.00 0.00 0.01 0.02 0.04 0.07 0.05 0.03 0.01 0.01 0.01 0.02 0.02 0.02 0.03 0.04 0.04 0.04 0.04 0.02 0.01 0.01 0.02 0.01 0.02 0.02 0.02 0.02
0.01 0.01 0.02 0.01 0.02 0.02 0.02 0.03 0.03 0.02 0.03 0.02 0.01 0.01 0.01 0.00 0.00 0.00 0.00 0.00 0.00 0.00 0.00 0.00 0.01 0.03 0.03 0.02 0.01 0.01 0.02 0.02 0.02 0.02 0.03 0.03 0.05 0.05 0.05 0.03 0.02 0.01 0.01 0.01 0.01 0.02 0.03 0.04 0.02
0.00 0.01 0.01 0.01 0.01 0.04 0.05 0.04 0.03 0.02 0.02 0.01 0.01 0.02 0.01 0.00 0.01 0.01 0.00 0.00 0.00 0.00 0.00 0.00 0.01 0.01 0.01 0.01 0.02 0.02 0.03 0.04 0.03 0.03 0.03 0.04 0.07 0.07 0.06 0.04 0.02 0.02 0.01 0.02 0.02 0.02 0.03 0.04 0.03
0.00 0.00 0.01 0.01 0.01 0.03 0.03 0.04 0.05 0.04 0.02 0.02 0.02 0.02 0.01 0.01 0.01 0.00 0.00 0.01 0.00 0.00 0.00 0.00 0.01 0.01 0.01 0.01 0.01 0.02 0.03 0.05 0.03 0.02 0.02 0.03 0.05 0.06 0.04 0.03 0.04 0.03 0.03 0.03 0.03 0.03 0.04 0.04 0.03
0.00 0.00 0.01 0.01 0.02 0.04 0.03 0.04 0.06 0.04 0.02 0.03 0.03 0.02 0.01 0.00 0.00 0.00 0.01 0.01 0.01 0.00 0.00 0.00 0.00 0.01 0.02 0.01 0.01 0.01 0.03 0.04 0.03 0.03 0.03 0.03 0.03 0.03 0.03 0.04 0.04 0.04 0.04 0.04 0.03 0.04 0.05 0.05 0.04
0.01 0.01 0.01 0.01 0.01 0.03 0.04 0.05 0.06 0.05 0.04 0.05 0.03 0.02 0.02 0.01 0.00 0.00 0.01 0.01 0.01 0.00 0.00 0.00 0.00 0.01 0.01 0.01 0.02 0.02 0.02 0.02 0.02 0.04 0.05 0.05 0.03 0.02 0.02 0.03 0.03 0.04 0.06 0.04 0.04 0.04 0.03 0.03 0.03
0.01 0.01 0.01 0.01 0.01 0.03 0.04 0.06 0.06 0.05 0.06 0.06 0.03 0.02 0.02 0.02 0.01 0.00 0.01 0.00 0.01 0.01 0.01 0.01 0.01 0.01 0.01 0.01 0.02 0.03 0.03 0.02 0.03 0.05 0.05 0.08 0.06 0.04 0.04 0.04 0.04 0.06 0.06 0.05 0.04 0.04 0.03 0.03 0.03
0.00 0.00 0.01 0.01 0.01 0.02 0.03 0.07 0.07 0.06 0.10 0.07 0.04 0.03 0.03 0.02 0.02 0.01 0.01 0.01 0.02 0.01 0.01 0.02 0.01 0.01 0.01 0.01 0.02 0.03 0.02 0.02 0.03 0.04 0.04 0.04 0.05 0.05 0.05 0.04 0.04 0.05 0.06 0.07 0.07 0.05 0.05 0.04 0.03
0.00 0.00 0.01 0.01 0.02 0.03 0.05 0.08 0.08 0.08 0.11 0.08 0.05 0.05 0.05 0.03 0.02 0.02 0.02 0.01 0.01 0.01 0.03 0.03 0.02 0.01 0.01 0.02 0.03 0.03 0.02 0.03 0.03 0.04 0.04 0.04 0.04 0.05 0.06 0.06 0.06 0.07 0.07 0.06 0.06 0.06 0.04 0.03 0.03
0.00 0.01 0.01 0.01 0.02 0.04 0.05 0.04 0.08 0.08 0.06 0.06 0.06 0.07 0.05 0.04 0.04 0.03 0.03 0.03 0.03 0.02 0.03 0.04 0.04 0.06 0.06 0.04 0.04 0.04 0.05 0.05 0.04 0.04 0.05 0.04 0.04 0.04 0.04 0.05 0.05 0.05 0.06 0.06 0.06 0.05 0.04 0.05 0.04
0.01 0.01 0.01 0.02 0.03 0.03 0.02 0.01 0.02 0.03 0.04 0.07 0.09 0.12 0.09 0.05 0.04 0.04 0.03 0.03 0.03 0.03 0.02 0.02 0.03 0.04 0.05 0.06 0.07 0.05 0.04 0.05 0.04 0.04 0.04 0.04 0.03 0.03 0.03 0.03 0.04 0.04 0.06 0.08 0.08 0.05 0.03 0.03 0.03
0.01 0.01 0.01 0.02 0.02 0.02 0.01 0.02 0.04 0.06 0.06 0.06 0.09 0.07 0.08 0.12 0.08 0.04 0.04 0.03 0.03 0.03 0.03 0.03 0.03 0.05 0.07 0.10 0.10 0.06 0.04 0.04 0.05 0.05 0.03 0.03 0.02 0.02 0.03 0.02 0.02 0.03 0.04 0.04 0.04 0.03 0.03 0.03 0.02
0.01 0.01 0.01 0.02 0.03 0.03 0.03 0.03 0.03 0.07 0.09 0.06 0.06 0.06 0.06 0.08 0.06 0.03 0.03 0.03 0.03 0.03 0.06 0.08 0.05 0.04 0.05 0.11 0.11 0.07 0.05 0.03 0.03 0.03 0.02 0.01 0.01 0.01 0.01 0.01 0.01 0.02 0.03 0.04 0.05 0.04 0.03 0.03 0.02
0.01 0.01 0.02 0.03 0.03 0.04 0.05 0.05 0.04 0.03 0.06 0.05 0.06 0.07 0.06 0.05 0.03 0.02 0.01 0.01 0.02 0.02 0.06 0.06 0.05 0.02 0.03 0.04 0.04 0.05 0.05 0.04 0.03 0.03 0.02 0.02 0.02 0.02 0.01 0.01 0.02 0.01 0.02 0.03 0.04 0.05 0.05 0.03 0.02
0.01 0.01 0.01 0.02 0.03 0.02 0.04 0.05 0.04 0.03 0.05 0.06 0.05 0.04 0.06 0.05 0.02 0.01 0.01 0.01 0.01 0.01 0.05 0.05 0.03 0.04 0.05 0.06 0.05 0.04 0.06 0.06 0.04 0.03 0.03 0.03 0.02 0.02 0.01 0.02 0.03 0.02 0.01 0.02 0.03 0.04 0.05 0.06 0.05
0.01 0.01 0.01 0.01 0.01 0.01 0.03 0.03 0.04 0.04 0.06 0.08 0.08 0.05 0.04 0.03 0.02 0.01 0.01 0.01 0.01 0.01 0.02 0.08 0.12 0.10 0.10 0.11 0.13 0.11 0.07 0.07 0.06 0.03 0.03 0.03 0.02 0.03 0.03 0.03 0.04 0.03 0.02 0.03 0.03 0.03 0.03 0.04 0.06
MSLP
1009.64 1010.46 1011.38 1012.23 1012.88 1013.21 1013.19 1012.89 1012.41 1011.92 1011.58 1011.50 1011.71 1012.16 1012.74 1013.30 1013.67 1013.75 1013.49 1012.94 1012.22 1011.47 1010.84 1010.44 1010.33 1010.49 1010.86 1011.32 1011.78 1012.17 1012.45 1012.63 1012.76 1012.89 1013.06 1013.28 1013.54 1013.82 1014.06 1014.25 1014.34 1014.37 1014.34 1014.30 1014.28 1014.30 1014.35 1014.42 1014.47
1009.99 1010.94 1011.91 1012.73 1013.27 1013.47 1013.31 1012.90 1012.34 1011.83 1011.51 1011.47 1011.73 1012.23 1012.86 1013.45 1013.85 1013.97 1013.76 1013.29 1012.65 1011.99 1011.43 1011.08 1010.98 1011.11 1011.42 1011.80 1012.18 1012.50 1012.73 1012.89 1013.02 1013.15 1013.32 1013.54 1013.78 1014.02 1014.23 1014.36 1014.41 1014.40 1014.35 1014.30 1014.26 1014.26 1014.28 1014.32 1014.34
1010.50 1011.54 1012.50 1013.24 1013.66 1013.71 1013.44 1012.93 1012.34 1011.83 1011.54 1011.54 1011.83 1012.34 1012.96 1013.52 1013.90 1014.01 1013.83 1013.42 1012.86 1012.30 1011.83 1011.55 1011.49 1011.62 1011.88 1012.21 1012.52 1012.78 1012.97 1013.11 1013.23 1013.36 1013.53 1013.73 1013.95 1014.14 1014.29 1014.37 1014.39 1014.35 1014.29 1014.23 1014.20 1014.19 1014.20 1014.22 1014.20
1011.08 1012.14 1013.04 1013.66 1013.95 1013.88 1013.51 1012.97 1012.39 1011.93 1011.69 1011.73 1012.03 1012.51 1013.06 1013.54 1013.85 1013.91 1013.73 1013.36 1012.90 1012.45 1012.10 1011.91 1011.90 1012.05 1012.29 1012.57 1012.82 1013.02 1013.18 1013.29 1013.40 1013.53 1013.68 1013.86 1014.03 1014.18 1014.28 1014.31 1014.29 1014.24 1014.17 1014.13 1014.10 1014.11 1014.11 1014.11 1014.07
1011.62 1012.62 1013.41 1013.90 1014.05 1013.89 1013.48 1012.96 1012.45 1012.08 1011.93 1012.01 1012.31 1012.74 1013.18 1013.55 1013.74 1013.73 1013.53 1013.20 1012.83 1012.50 1012.27 1012.20 1012.26 1012.44 1012.67 1012.91 1013.11 1013.26 1013.38 1013.46 1013.55 1013.66 1013.79 1013.93 1014.06 1014.16 1014.20 1014.19 1014.14 1014.08 1014.02 1013.99 1013.99 1014.00 1014.01 1013.98 1013.91
1011.99 1012.87 1013.51 1013.85 1013.89 1013.67 1013.30 1012.86 1012.48 1012.24 1012.20 1012.35 1012.64 1013.00 1013.33 1013.55 1013.62 1013.53 1013.30 1013.02 1012.73 1012.52 1012.43 1012.46 1012.61 1012.81 1013.04 1013.24 1013.39 1013.50 1013.56 1013.62 1013.68 1013.77 1013.87 1013.97 1014.06 1014.10 1014.09 1014.03 1013.96 1013.89 1013.84 1013.82 1013.83 1013.86 1013.86 1013.82 1013.71
1012.10 1012.81 1013.28 1013.48 1013.44 1013.22 1012.92 1012.62 1012.42 1012.36 1012.45 1012.67 1012.97 1013.26 1013.47 1013.56 1013.51 1013.34 1013.10 1012.85 1012.66 1012.56 1012.59 1012.72 1012.93 1013.16 1013.37 1013.54 1013.64 1013.69 1013.71 1013.74 1013.78 1013.84 1013.92 1013.98 1014.02 1014.02 1013.96 1013.87 1013.77 1013.68 1013.63 1013.61 1013.63 1013.65 1013.64 1013.58 1013.45
1011.91 1012.45 1012.74 1012.82 1012.74 1012.56 1012.37 1012.25 1012.24 1012.37 1012.61 1012.91 1013.21 1013.44 1013.55 1013.53 1013.39 1013.17 1012.92 1012.72 1012.61 1012.62 1012.74 1012.95 1013.20 1013.44 1013.62 1013.74 1013.80 1013.80 1013.79 1013.79 1013.81 1013.86 1013.92 1013.96 1013.97 1013.93 1013.84 1013.71 1013.58 1013.47 1013.40 1013.37 1013.38 1013.38 1013.36 1013.27 1013.11
1011.48 1011.85 1012.00 1011.99 1011.89 1011.78 1011.73 1011.78 1011.97 1012.27 1012.64 1013.01 1013.31 1013.49 1013.53 1013.44 1013.23 1012.98 1012.76 1012.61 1012.57 1012.66 1012.85 1013.10 1013.36 1013.59 1013.74 1013.82 1013.82 1013.79 1013.75 1013.74 1013.76 1013.81 1013.86 1013.90 1013.90 1013.84 1013.72 1013.57 1013.41 1013.27 1013.17 1013.12 1013.09 1013.07 1013.01 1012.90 1012.71
1010.91 1011.14 1011.18 1011.13 1011.04 1011.01 1011.09 1011.30 1011.65 1012.08 1012.53 1012.93 1013.23 1013.38 1013.37 1013.22 1013.00 1012.76 1012.57 1012.47 1012.50 1012.64 1012.87 1013.13 1013.38 1013.57 1013.68 1013.71 1013.68 1013.62 1013.57 1013.56 1013.60 1013.66 1013.74 1013.79 1013.79 1013.73 1013.61 1013.44 1013.26 1013.09 1012.96 1012.87 1012.81 1012.74 1012.66 1012.51 1012.31
1010.34 1010.48 1010.47 1010.41 1010.36 1010.40 1010.58 1010.90 1011.34 1011.83 1012.31 1012.71 1012.97 1013.08 1013.04 1012.88 1012.67 1012.46 1012.32 1012.28 1012.35 1012.52 1012.75 1013.00 1013.22 1013.36 1013.42 1013.42 1013.36 1013.30 1013.26 1013.27 1013.34 1013.43 1013.54 1013.62 1013.64 1013.60 1013.48 1013.32 1013.13 1012.94 1012.78 1012.65 1012.55 1012.45 1012.33 1012.16 1011.94
1009.91 1010.02 1010.01 1009.97 1009.96 1010.07 1010.31 1010.68 1011.13 1011.61 1012.04 1012.38 1012.58 1012.64 1012.57 1012.41 1012.23 1012.07 1011.99 1012.00 1012.11 1012.29 1012.50 1012.71 1012.88 1012.98 1013.01 1012.98 1012.93 1012.88 1012.87 1012.91 1013.00 1013.13 1013.27 1013.38 1013.43 1013.42 1013.33 1013.18 1013.01 1012.82 1012.64 1012.48 1012.34 1012.21 1012.06 1011.87 1011.64
1009.71 1009.85 1009.88 1009.88 1009.93 1010.08 1010.33 1010.68 1011.07 1011.46 1011.79 1012.01 1012.12 1012.10 1012.01 1011.86 1011.72 1011.62 1011.59 1011.64 1011.77 1011.94 1012.13 1012.30 1012.42 1012.49 1012.50 1012.48 1012.45 1012.43 1012.45 1012.52 1012.64 1012.79 1012.94 1013.07 1013.15 1013.17 1013.11 1013.00 1012.85 1012.67 1012.50 1012.33 1012.18 1012.02 1011.86 1011.66 1011.43
1009.79 1009.98 1010.06 1010.14 1010.24 1010.41 1010.65 1010.93 1011.21 1011.45 1011.62 1011.68 1011.66 1011.57 1011.43 1011.30 1011.19 1011.14 1011.16 1011.24 1011.36 1011.51 1011.66 1011.80 1011.90 1011.95 1011.98 1011.99 1012.00 1012.03 1012.08 1012.17 1012.30 1012.44 1012.58 1012.70 1012.78 1012.81 1012.79 1012.71 1012.60 1012.47 1012.32 1012.17 1012.02 1011.87 1011.71 1011.52 1011.29
1010.07 1010.31 1010.48 1010.62 1010.79 1010.98 1011.19 1011.38 1011.52 1011.58 1011.56 1011.45 1011.29 1011.10 1010.92 1010.78 1010.70 1010.68 1010.73 1010.82 1010.93 1011.06 1011.17 1011.28 1011.37 1011.45 1011.51 1011.58 1011.66 1011.73 1011.82 1011.91 1012.01 1012.10 1012.19 1012.26 1012.31 1012.33 1012.33 1012.29 1012.23 1012.15 1012.05 1011.94 1011.82 1011.70 1011.55 1011.38 1011.18
1010.43 1010.72 1010.96 1011.19 1011.42 1011.65 1011.83 1011.94 1011.94 1011.83 1011.62 1011.33 1011.02 1010.73 1010.50 1010.35 1010.28 1010.28 1010.34 1010.42 1010.51 1010.60 1010.69 1010.78 1010.88 1011.00 1011.14 1011.29 1011.43 1011.57 1011.67 1011.75 1011.79 1011.80 1011.79 1011.77 1011.75 1011.73 1011.72 1011.71 1011.70 1011.68 1011.65 1011.60 1011.54 1011.46 1011.36 1011.23 1011.05
1010.70 1011.02 1011.34 1011.66 1011.98 1012.26 1012.45 1012.50 1012.40 1012.13 1011.75 1011.31 1010.86 1010.48 1010.19 1010.02 1009.95 1009.96 1010.00 1010.07 1010.13 1010.18 1010.24 1010.33 1010.46 1010.63 1010.85 1011.09 1011.32 1011.51 1011.63 1011.67 1011.63 1011.53 1011.39 1011.25 1011.13 1011.05 1011.01 1011.01 1011.05 1011.09 1011.13 1011.16 1011.17 1011.16 1011.11 1011.03 1010.90
1010.76 1011.10 1011.49 1011.92 1012.35 1012.72 1012.95 1012.98 1012.80 1012.42 1011.90 1011.33 1010.77 1010.30 1009.96 1009.77 1009.69 1009.68 1009.72 1009.75 1009.78 1009.79 1009.83 1009.91 1010.08 1010.32 1010.62 1010.95 1011.27 1011.51 1011.65 1011.65 1011.53 1011.30 1011.03 1010.75 1010.51 1010.34 1010.26 1010.26 1010.32 1010.42 1010.54 1010.64 1010.73 1010.79 1010.82 1010.80 1010.72
1010.54 1010.89 1011.36 1011.92 1012.49 1012.97 1013.27 1013.32 1013.10 1012.63 1012.01 1011.31 1010.66 1010.12 1009.74 1009.52 1009.44 1009.43 1009.45 1009.46 1009.46 1009.44 1009.45 1009.54 1009.73 1010.02 1010.41 1010.83 1011.22 1011.52 1011.68 1011.65 1011.46 1011.13 1010.73 1010.32 1009.97 1009.71 1009.58 1009.56 1009.64 1009.79 1009.96 1010.14 1010.30 1010.43 1010.53 1010.58 1010.56
1010.03 1010.42 1011.00 1011.71 1012.43 1013.05 1013.43 1013.51 1013.26 1012.72 1012.00 1011.21 1010.47 1009.87 1009.45 1009.23 1009.15 1009.15 1009.18 1009.18 1009.16 1009.12 1009.12 1009.20 1009.40 1009.74 1010.18 1010.67 1011.14 1011.50 1011.68 1011.65 1011.42 1011.02 1010.54 1010.04 1009.59 1009.27 1009.09 1009.05 1009.14 1009.31 1009.52 1009.75 1009.98 1010.17 1010.33 1010.44 1010.48
1009.33 1009.80 1010.52 1011.40 1012.29 1013.04 1013.50 1013.59 1013.31 1012.68 1011.86 1010.96 1010.13 1009.47 1009.04 1008.82 1008.77 1008.81 1008.87 1008.90 1008.88 1008.84 1008.83 1008.90 1009.11 1009.47 1009.94 1010.49 1011.01 1011.42 1011.65 1011.65 1011.43 1011.02 1010.50 1009.96 1009.48 1009.11 1008.90 1008.85 1008.93 1009.11 1009.34 1009.60 1009.86 1010.09 1010.29 1010.45 1010.54
1008.62 1009.22 1010.11 1011.17 1012.21 1013.06 1013.57 1013.64 1013.28 1012.53 1011.57 1010.55 1009.62 1008.91 1008.46 1008.27 1008.28 1008.40 1008.53 1008.63 1008.66 1008.64 1008.64 1008.70 1008.90 1009.25 1009.74 1010.30 1010.86 1011.32 1011.61 1011.68 1011.51 1011.15 1010.67 1010.15 1009.67 1009.31 1009.09 1009.02 1009.09 1009.26 1009.49 1009.75 1010.01 1010.25 1010.48 1010.66 1010.79
1008.06 1008.83 1009.91 1011.14 1012.31 1013.22 1013.72 1013.71 1013.22 1012.31 1011.18 1010.01 1008.98 1008.21 1007.76 1007.61 1007.71 1007.94 1008.19 1008.39 1008.51 1008.55 1008.57 1008.64 1008.82 1009.15 1009.62 1010.18 1010.76 1011.26 1011.61 1011.76 1011.69 1011.42 1011.03 1010.59 1010.18 1009.85 1009.65 1009.58 1009.63 1009.78 1009.98 1010.20 1010.44 1010.67 1010.88 1011.07 1011.22
1007.77 1008.74 1010.01 1011.38 1012.64 1013.55 1013.98 1013.83 1013.15 1012.05 1010.73 1009.40 1008.25 1007.43 1006.99 1006.91 1007.12 1007.49 1007.90 1008.24 1008.48 1008.61 1008.68 1008.76 1008.93 1009.22 1009.65 1010.19 1010.76 1011.29 1011.70 1011.94 1011.98 1011.85 1011.58 1011.26 1010.94 1010.68 1010.51 1010.45 1010.49 1010.60 1010.75 1010.92 1011.11 1011.29 1011.47 1011.65 1011.79
1007.80 1008.98 1010.41 1011.88 1013.15 1014.01 1014.30 1013.98 1013.09 1011.77 1010.25 1008.77 1007.52 1006.66 1006.24 1006.25 1006.59 1007.12 1007.70 1008.22 1008.60 1008.84 1008.98 1009.09 1009.24 1009.50 1009.88 1010.37 1010.92 1011.46 1011.91 1012.23 1012.39 1012.39 1012.27 1012.08 1011.87 1011.70 1011.58 1011.53 1011.55 1011.62 1011.71 1011.82 1011.93 1012.06 1012.19 1012.33 1012.45
1008.11 1009.45 1010.99 1012.49 1013.72 1014.47 1014.60 1014.08 1012.98 1011.46 1009.78 1008.17 1006.86 1005.99 1005.62 1005.73 1006.20 1006.90 1007.65 1008.33 1008.86 1009.22 1009.44 1009.59 1009.74 1009.97 1010.30 1010.74 1011.24 1011.77 1012.25 1012.63 1012.89 1013.01 1013.02 1012.96 1012.87 1012.78 1012.71 1012.69 1012.69 1012.71 1012.74 1012.78 1012.82 1012.88 1012.95 1013.05 1013.14
1008.57 1010.01 1011.58 1013.05 1014.17 1014.77 1014.72 1014.02 1012.74 1011.09 1009.31 1007.66 1006.34 1005.50 1005.21 1005.41 1006.01 1006.84 1007.74 1008.57 1009.24 1009.71 1010.02 1010.22 1010.38 1010.58 1010.87 1011.26 1011.72 1012.22 1012.70 1013.12 1013.44 1013.65 1013.77 1013.82 1013.82 1013.81 1013.80 1013.79 1013.78 1013.77 1013.75 1013.72 1013.70 1013.69 1013.70 1013.75 1013.81
1009.03 1010.48 1011.99 1013.34 1014.31 1014.74 1014.52 1013.68 1012.32 1010.62 1008.84 1007.23 1005.98 1005.23 1005.03 1005.33 1006.04 1006.98 1007.98 1008.91 1009.68 1010.25 1010.63 1010.88 1011.07 1011.27 1011.54 1011.88 1012.30 1012.76 1013.22 1013.64 1014.00 1014.27 1014.46 1014.58 1014.67 1014.72 1014.75 1014.76 1014.75 1014.72 1014.66 1014.59 1014.51 1014.45 1014.41 1014.41 1014.44
1009.34 1010.68 1012.04 1013.21 1013.99 1014.24 1013.90 1013.00 1011.64 1010.01 1008.35 1006.88 1005.78 1005.18 1005.10 1005.49 1006.27 1007.26 1008.32 1009.30 1010.12 1010.75 1011.19 1011.50 1011.72 1011.94 1012.21 1012.53 1012.92 1013.34 1013.77 1014.18 1014.53 1014.82 1015.06 1015.23 1015.37 1015.47 1015.54 1015.57 1015.57 1015.54 1015.46 1015.36 1015.25 1015.14 1015.06 1015.02 1015.02
1009.41 1010.56 1011.69 1012.61 1013.18 1013.27 1012.86 1011.96 1010.70 1009.25 1007.82 1006.58 1005.71 1005.30 1005.36 1005.84 1006.65 1007.65 1008.69 1009.67 1010.50 1011.15 1011.63 1011.99 1012.27 1012.53 1012.81 1013.14 1013.51 1013.91 1014.31 1014.69 1015.03 1015.32 1015.57 1015.77 1015.94 1016.08 1016.18 1016.25 1016.27 1016.25 1016.17 1016.06 1015.93 1015.80 1015.69 1015.62 1015.58
Thickness
5823 5820 5816 5805 5786 5770 5769 5784 5795 5796 5798 5805 5808 5802 5791 5782 5773 5764 5783 5791 5790 5788 5787 5786 5786 5785 5783 5782 5781 5780 5780 5779 5778 5778 5777 5776 5775 5774 5773 5772 5771 5770 5768 5767 5766 5766 5765 5763 5763
5827 5822 5811 5796 5775 5757 5768 5790 5794 5800 5806 5811 5808 5802 5792 5785 5789 5786 5787 5790 5790 5789 5788 5786 5785 5784 5783 5782 5781 5780 5779 5778 5778 5777 5777 5776 5775 5773 5773 5772 5771 5770 5769 5767 5767 5766 5765 5764 5762
5830 5825 5805 5788 5773 5765 5775 5796 5801 5809 5816 5814 5804 5802 5794 5786 5790 5789 5791 5793 5791 5788 5788 5787 5785 5784 5783 5782 5780 5779 5778 5778 5777 5777 5776 5776 5774 5773 5772 5771 5770 5770 5769 5768 5767 5766 5765 5764 5762
5827 5814 5802 5783 5777 5789 5797 5804 5811 5810 5812 5813 5805 5793 5795 5800 5798 5796 5795 5794 5790 5788 5789 5789 5788 5784 5783 5782 5780 5779 5778 5777 5776 5776 5776 5775 5774 5773 5771 5771 5770 5769 5769 5767 5766 5765 5765 5764 5762
5825 5806 5788 5778 5786 5802 5813 5818 5819 5810 5806 5805 5802 5788 5786 5800 5803 5799 5796 5793 5790 5788 5789 5790 5790 5785 5783 5782 5781 5779 5778 5777 5776 5775 5775 5774 5773 5772 5771 5771 5770 5769 5768 5767 5766 5765 5764 5763 5762
5813 5801 5778 5774 5791 5808 5816 5824 5820 5810 5805 5803 5799 5788 5785 5798 5799 5797 5796 5794 5792 5790 5789 5789 5788 5786 5784 5782 5781 5779 5778 5777 5776 5775 5774 5773 5773 5772 5771 5771 5770 5769 5769 5767 5767 5765 5764 5764 5763
5808 5795 5783 5788 5794 5803 5815 5827 5820 5810 5805 5805 5805 5788 5786 5794 5799 5799 5796 5794 5792 5790 5789 5788 5787 5785 5784 5782 5781 5780 5779 5777 5776 5775 5774 5773 5772 5772 5771 5771 5771 5770 5769 5768 5767 5765 5764 5764 5763
5824 5803 5791 5794 5796 5803 5823 5829 5826 5819 5811 5817 5812 5791 5785 5795 5802 5800 5796 5793 5790 5789 5788 5787 5786 5784 5783 5782 5781 5780 5779 5778 5777 5776 5775 5774 5773 5772 5772 5771 5771 5770 5769 5768 5767 5766 5765 5764 5764
5834 5799 5787 5799 5805 5811 5828 5825 5826 5830 5820 5817 5817 5809 5807 5807 5804 5797 5791 5788 5787 5787 5787 5787 5785 5784 5783 5783 5782 5781 5780 5778 5777 5776 5775 5774 5773 5772 5772 5771 5771 5770 5769 5769 5768 5766 5765 5765 5764
5824 5795 5805 5825 5829 5826 5830 5829 5826 5819 5810 5808 5808 5811 5811 5807 5802 5795 5790 5786 5785 5785 5786 5787 5785 5785 5784 5783 5782 5781 5780 5779 5777 5776 5776 5775 5774 5773 5772 5772 5771 5770 5770 5769 5768 5767 5766 5765 5764
5829 5816 5830 5838 5843 5839 5831 5831 5834 5819 5804 5808 5806 5806 5808 5804 5800 5796 5793 5791 5790 5790 5789 5788 5787 5786 5785 5784 5783 5782 5781 5779 5778 5777 5776 5775 5774 5773 5772 5772 5771 5771 5770 5769 5768 5767 5767 5766 5765
5836 5838 5843 5843 5848 5842 5835 5833 5827 5823 5818 5825 5822 5817 5811 5804 5801 5798 5796 5795 5794 5792 5792 5791 5790 5788 5787 5785 5785 5783 5782 5780 5779 5779 5777 5776 5774 5773 5772 5772 5771 5771 5770 5769 5768 5768 5767 5767 5766
5837 5840 5849 5850 5849 5847 5843 5834 5829 5824 5830 5829 5824 5817 5811 5807 5805 5804 5803 5801 5798 5795 5794 5794 5792 5789 5788 5787 5785 5785 5783 5782 5781 5780 5779 5778 5776 5774 5773 5772 5771 5771 5770 5770 5769 5768 5768 5767 5766
5842 5845 5846 5847 5847 5846 5837 5831 5828 5823 5831 5825 5820 5815 5813 5810 5808 5805 5802 5800 5799 5797 5796 5796 5794 5792 5790 5788 5787 5786 5785 5783 5782 5781 5780 5779 5777 5775 5774 5773 5772 5772 5771 5771 5770 5769 5768 5767 5767
5850 5837 5836 5842 5843 5840 5835 5817 5820 5828 5830 5822 5818 5817 5815 5813 5812 5808 5807 5805 5803 5801 5799 5797 5796 5794 5791 5790 5789 5788 5786 5785 5784 5782 5781 5780 5778 5776 5775 5774 5773 5773 5772 5772 5771 5770 5769 5767 5767
5838 5822 5812 5831 5840 5838 5823 5799 5822 5831 5827 5819 5819 5818 5816 5815 5814 5814 5812 5809 5807 5803 5800 5799 5799 5795 5793 5791 5790 5789 5788 5786 5784 5783 5782 5780 5779 5778 5776 5775 5774 5773 5773 5772 5770 5769 5767 5766 5765
5814 5801 5806 5822 5839 5835 5820 5803 5821 5830 5825 5819 5819 5818 5816 5814 5814 5816 5815 5813 5809 5806 5803 5800 5799 5796 5794 5793 5791 5790 5789 5787 5785 5784 5783 5781 5780 5778 5777 5776 5775 5774 5773 5771 5771 5768 5767 5764 5764
5797 5801 5807 5812 5830 5830 5816 5811 5822 5828 5825 5821 5820 5819 5817 5815 5815 5818 5818 5816 5812 5809 5806 5802 5800 5797 5795 5793 5791 5789 5787 5786 5785 5784 5783 5782 5780 5779 5777 5776 5774 5774 5772 5770 5769 5767 5766 5765 5764
5816 5808 5805 5817 5835 5823 5814 5812 5816 5824 5822 5820 5819 5817 5816 5817 5820 5821 5820 5817 5813 5809 5805 5803 5800 5797 5795 5791 5788 5785 5783 5783 5783 5783 5783 5781 5780 5778 5777 5776 5774 5773 5770 5769 5768 5766 5764 5762 5763
5817 5806 5806 5818 5833 5821 5810 5810 5819 5824 5825 5825 5823 5819 5818 5817 5817 5818 5817 5816 5813 5809 5806 5803 5801 5798 5796 5793 5790 5788 5785 5783 5783 5783 5781 5780 5779 5777 5776 5775 5773 5771 5769 5768 5766 5764 5761 5760 5760
5814 5809 5809 5809 5819 5820 5809 5799 5810 5820 5826 5827 5828 5826 5824 5821 5818 5817 5816 5814 5813 5810 5808 5806 5802 5800 5797 5795 5791 5788 5784 5782 5780 5779 5778 5779 5777 5776 5775 5774 5773 5771 5769 5766 5765 5763 5759 5755 5756
5805 5828 5826 5819 5801 5787 5799 5771 5795 5808 5814 5819 5821 5823 5823 5824 5821 5819 5817 5814 5814 5813 5811 5808 5804 5800 5798 5795 5791 5785 5780 5776 5777 5777 5777 5776 5776 5775 5774 5773 5772 5770 5769 5766 5764 5763 5759 5756 5752
5820 5835 5828 5820 5801 5785 5789 5774 5784 5802 5802 5811 5819 5824 5826 5827 5825 5822 5820 5818 5817 5815 5811 5807 5803 5800 5797 5794 5791 5786 5781 5778 5777 5776 5775 5774 5773 5773 5772 5771 5770 5768 5767 5765 5763 5761 5759 5756 5753
5836 5825 5816 5803 5785 5763 5778 5772 5773 5791 5803 5811 5819 5824 5827 5828 5827 5825 5824 5820 5816 5814 5810 5807 5801 5798 5796 5793 5790 5786 5781 5777 5774 5772 5771 5770 5770 5770 5769 5768 5767 5766 5764 5763 5761 5760 5757 5755 5753
5825 5794 5766 5759 5748 5753 5778 5773 5778 5808 5818 5818 5819 5822 5825 5827 5825 5823 5820 5817 5814 5811 5809 5805 5801 5797 5795 5792 5789 5786 5782 5778 5774 5772 5770 5768 5766 5766 5766 5766 5765 5763 5762 5761 5760 5758 5755 5754 5751
5813 5796 5762 5746 5741 5751 5770 5767 5788 5817 5825 5826 5825 5825 5825 5824 5824 5823 5821 5818 5814 5811 5808 5804 5800 5796 5794 5791 5788 5785 5782 5778 5775 5773 5770 5768 5766 5765 5765 5764 5762 5761 5760 5759 5757 5755 5753 5752 5749
5807 5796 5794 5767 5756 5745 5754 5771 5793 5813 5814 5818 5819 5819 5819 5823 5824 5823 5820 5817 5813 5809 5806 5803 5799 5795 5792 5789 5786 5783 5780 5777 5774 5772 5770 5768 5766 5765 5763 5761 5759 5758 5757 5756 5753 5751 5749 5748 5747
5818 5806 5781 5762 5743 5734 5747 5758 5767 5790 5800 5807 5809 5811 5813 5818 5819 5818 5818 5815 5812 5809 5805 5802 5798 5795 5792 5788 5784 5781 5778 5775 5773 5770 5767 5765 5764 5762 5760 5758 5756 5755 5754 5752 5750 5748 5746 5744 5743
5800 5794 5779 5762 5757 5738 5731 5751 5796 5797 5801 5802 5806 5810 5811 5814 5815 5814 5812 5811 5809 5805 5801 5797 5794 5790 5787 5785 5781 5778 5775 5772 5769 5767 5765 5763 5761 5759 5757 5755 5753 5751 5750 5749 5746 5744 5742 5740 5738
5803 5792 5776 5757 5752 5750 5741 5755 5808 5806 5807 5806 5806 5810 5813 5813 5813 5811 5808 5805 5802 5799 5796 5792 5790 5787 5784 5782 5778 5775 5771 5768 5765 5763 5761 5759 5757 5756 5754 5752 5749 5747 5746 5744 5742 5739 5737 5735 5732